Regional Weather Roundup
Issued by NWS

Home | Current Version | Previous Version | Graphics & Text | Print | Product List | Glossary On
Versions: 1 2 3 4 5 6 7 8 9 10 11 12 13 14 15 16 17 18 19 20 21 22 23 24 25 26 27
000
ASUS45 KBOU 041807
RWRCO

WEATHER ROUNDUP FOR COLORADO
NATIONAL WEATHER SERVICE DENVER/BOULDER CO
1200 PM MDT WED MAY 04 2016

NOTE: "FAIR" INDICATES FEW OR NO CLOUDS BELOW 12000 FEET WITH NO
SIGNIFICANT WEATHER AND/OR OBSTRUCTIONS TO VISIBILITY.

COZ001>005-013-030-031-041900-
...NORTHWEST COLORADO...

CITY           SKY/WX    TMP DP  RH WIND       PRES   REMARKS
CRAIG          FAIR      69  31  24 MISG      30.27F
HAYDEN         FAIR      64  25  22 NW9       30.28F
MEEKER         FAIR      69  25  19 NW5       30.27F
MOUNT WERNER   NOT AVBL
STEAMBOAT SPGS FAIR      63  24  22 CALM      30.30F
WALDEN         FAIR      57  19  23 SW6       30.37F
$$

COZ006>008-011-041900-
...WEST CENTRAL VALLEYS...

CITY           SKY/WX    TMP DP  RH WIND       PRES   REMARKS
GRAND JUNCTION FAIR      69  30  23 S5        30.22F
MONTROSE       FAIR      71  29  21 NW10      30.27F
EAGLE          SUNNY     63  23  22 CALM      30.32F
RIFLE          FAIR      70  28  21 VRB5      30.25F
DELTA          NOT AVBL
NUCLA          NOT AVBL
$$

COZ017>023-064>068-041900-
...SOUTHWEST COLORADO...

CITY           SKY/WX    TMP DP  RH WIND       PRES   REMARKS
DURANGO        FAIR      64  31  28 W8        30.35F
CORTEZ         FAIR      71  31  22 SE8       30.29F
PAGOSA SPRINGS FAIR      61  22  22 SW8       30.39F
TELLURIDE      FAIR      60  22  23 N3        30.43F
WOLF CREEK PAS FAIR      43  23  45 SW8G17    30.60S
$$

COZ009-010-012-014-032>034-037-058>063-041900-
...CENTRAL COLORADO...

CITY           SKY/WX    TMP DP  RH WIND       PRES   REMARKS
ASPEN          FAIR      65  22  19 N12       30.33F
BUENA VISTA    FAIR      61  19  19 SE6       30.35F
COPPER MTN     NOT AVBL
BERTHOUD PASS  FAIR      36  28  75 N12G21    30.56S
COTTONWOOD PAS FAIR      59  18  20 CALM      30.45F
GUNNISON       FAIR      61  25  25 SE5       30.39F
KREMMLING      FAIR      61  23  23 CALM      30.34F
LEADVILLE      FAIR      54   6  14 N6        30.42F
MONARCH PASS   FAIR      41  19  42 SW16      30.66F
SALIDA         FAIR      66  24  20 CALM      30.40F
SUNLIGHT       FAIR      50  21  32 W3        30.54S
WILKERSON PASS FAIR      48  16  27 CALM      30.54F
$$

COZ069>075-041900-
...SAN LUIS VALLEY/SANGRE DE CRISTO MOUNTAINS...

CITY           SKY/WX    TMP DP  RH WIND       PRES   REMARKS
ALAMOSA        FAIR      60  24  25 CALM      30.37F
LA VETA PASS   FAIR      54  27  35 SW6       30.49S
SAGUACHE       FAIR      57  23  26 S6        30.40F
$$

COZ035-036-038>040-041900-
...NORTHERN COLORADO FRONT RANGE...

CITY           SKY/WX    TMP DP  RH WIND       PRES   REMARKS
DENVER INTL AP FAIR      69  29  22 VRB3      30.24F
DMNS CITY PARK   N/A     71  28  20 N12G18    30.23F
AURORA         FAIR      69  30  23 NE6       30.25F
FRONT RANGE AP SUNNY     66  28  24 E7        30.25F
ERIE MUNI ARPT FAIR      69  33  25 E6        30.23F
BOULDER MUN AP FAIR      68  32  26 E5        30.22F
CENTENNIAL     FAIR      68  24  19 MISG      30.25F
BROOMFIELD     MOSUNNY   68  30  24 VRB5      30.25F
FORT COLLINS   FAIR      70  39  32 E9        30.23F
LONGMONT       FAIR      71  34  25 E8        30.24F
$$

COZ041-046-047-076>085-087-088-041900-
...PIKES PEAK/PALMER DIVIDE AND SOUTHERN FOOTHILLS...

CITY           SKY/WX    TMP DP  RH WIND       PRES   REMARKS
COLO. SPRINGS  FAIR      69  24  18 SW8       30.29F
A. F. ACADEMY  FAIR      66  25  20 VRB5      30.28F
SCHRIEVER AFB  NOT AVBL
ELLICOTT       FAIR     N/A N/A N/A S8        30.27F
FALCON         NOT AVBL
FORT CARSON    FAIR      68  27  21 S10       30.26F
LIMON          FAIR      66  34  30 CALM      30.25F
MONUMENT HILL  FAIR      61  23  23 N6        30.33F
TRINIDAD       FAIR      67  28  23 S6        30.27F
$$

COZ042>045-048>051-090-091-041900-
...NORTHEAST COLORADO...

CITY           SKY/WX    TMP DP  RH WIND       PRES   REMARKS
GREELEY ARPT   FAIR      72  37  28 S7        30.23F
AKRON          FAIR      70  39  32 N7        30.22F
BURLINGTON     FAIR      72  35  25 VRB7      30.21F
WRAY           NOT AVBL
STERLING       FAIR      70  39  32 CALM      30.19F
HOLYOKE        NOT AVBL
FORT MORGAN    FAIR      71  35  26 SE7       30.22F
$$

COZ086-089-092>099-041900-
...SOUTHEAST COLORADO...

CITY           SKY/WX    TMP DP  RH WIND       PRES   REMARKS
PUEBLO         FAIR      73  30  20 S10       30.22F
LA JUNTA       FAIR      72  34  24 VRB3      30.21F
LAMAR          FAIR      74  42  31 VRB5      30.18F
SPRINGFIELD      N/A     71  36  27 VRB5      30.21F
$$




USA.gov is the U.S. government's official web portal to all federal, state and local government web resources and services.